User: anonymous   Login
Location: Unspecified
(0.0000°N, 0.0000°E)
Time: 09:30:31
(UTC+00:00)
Language:

ESSA 7 - Orbit

View from above orbital plane
View from above orbital plane
View from above satellite
View from above satellite

Ground track
Ground track

The orbit data is extracted from the following two-line orbital elements,

1  3345U 68069A   17295.92318681 -.00000045 +00000-0 -10379-4 0  9991
2  3345 101.4863 334.7681 0026467 220.5704 188.3083 12.52972119249305
Epoch (UTC): 22 October 2017 22:09:23
Eccentricity: 0.0026467
inclination: 101.4863°
perigee height: 1431 km
apogee height: 1473 km
right ascension of ascending node: 334.7681°
argument of perigee: 220.5704°
revolutions per day: 12.52972119
mean anomaly at epoch: 188.3083°
orbit number at epoch: 24930

The dashed part of the orbit path shows where the satellite is in the earth's shadow,  

DLR